Temp
-14 -14 -14 -14 -14 -14 -14 -14 -14 -14 -14 -14 -14 -14 -14 -14 -14 -14 -14 -14 -14 -13 -14 -14 -14 -14 -14 -14 -14 -14 -14 -15 -15 -15 -15 -15 -14 -15 -15 -15 -16 -17 -17 -18 -17 -17 -18 -19 -19 -19 -18 -18 -19 -20
-15 -15 -15 -15 -15 -14 -14 -14 -14 -14 -14 -15 -14 -14 -14 -14 -14 -14 -14 -15 -14 -14 -14 -14 -14 -14 -15 -15 -15 -15 -15 -16 -15 -16 -16 -16 -15 -15 -15 -15 -17 -18 -19 -19 -19 -19 -20 -20 -20 -19 -20 -20 -20 -21
-17 -17 -16 -15 -15 -15 -15 -15 -15 -15 -15 -15 -15 -15 -15 -15 -15 -14 -14 -15 -14 -14 -14 -14 -14 -14 -15 -15 -16 -15 -16 -17 -17 -17 -17 -16 -16 -17 -16 -16 -17 -18 -20 -19 -19 -19 -20 -20 -20 -20 -21 -21 -21 -21
-17 -16 -16 -16 -16 -16 -15 -15 -15 -15 -16 -15 -14 -14 -15 -15 -15 -15 -15 -15 -14 -14 -13 -14 -14 -15 -15 -16 -16 -17 -17 -17 -17 -17 -18 -17 -18 -18 -17 -18 -18 -19 -21 -20 -19 -20 -20 -20 -21 -21 -21 -22 -22 -22
-16 -16 -16 -16 -16 -16 -16 -16 -16 -15 -15 -15 -15 -15 -15 -15 -15 -15 -15 -15 -15 -15 -14 -13 -14 -15 -15 -16 -17 -18 -18 -18 -18 -18 -18 -17 -18 -19 -18 -18 -18 -21 -22 -22 -21 -21 -21 -21 -21 -22 -22 -22 -23 -23
-16 -16 -16 -16 -16 -16 -16 -17 -16 -16 -15 -16 -16 -15 -15 -15 -15 -15 -15 -15 -15 -15 -15 -14 -14 -15 -15 -16 -18 -18 -18 -18 -19 -18 -18 -18 -19 -20 -19 -19 -20 -22 -23 -22 -22 -22 -22 -22 -22 -23 -23 -23 -23 -23
-16 -16 -17 -17 -17 -17 -17 -16 -16 -16 -16 -15 -16 -16 -16 -16 -17 -16 -16 -16 -16 -16 -16 -15 -14 -15 -16 -17 -18 -19 -19 -19 -19 -20 -19 -20 -21 -21 -21 -21 -23 -22 -23 -23 -23 -23 -23 -23 -23 -24 -24 -24 -24 -25
-16 -16 -16 -16 -16 -16 -16 -17 -17 -16 -16 -16 -16 -17 -17 -17 -17 -17 -17 -17 -17 -17 -17 -16 -15 -17 -19 -19 -19 -20 -21 -21 -21 -21 -20 -21 -22 -22 -21 -24 -23 -23 -24 -24 -24 -24 -24 -24 -25 -25 -25 -25 -26 -26
-17 -17 -16 -16 -16 -16 -17 -17 -17 -17 -16 -17 -17 -17 -17 -17 -17 -18 -18 -18 -18 -18 -17 -17 -18 -20 -19 -21 -21 -21 -22 -22 -22 -22 -22 -22 -22 -22 -23 -23 -24 -24 -24 -25 -25 -25 -25 -25 -25 -25 -26 -27 -27 -28
-19 -19 -18 -18 -18 -18 -18 -17 -18 -18 -17 -17 -18 -18 -18 -19 -19 -19 -19 -19 -19 -20 -20 -21 -23 -23 -23 -23 -23 -23 -23 -23 -23 -22 -22 -22 -22 -24 -24 -24 -24 -25 -25 -25 -25 -26 -27 -26 -27 -27 -27 -27 -28 -29
-21 -20 -21 -20 -20 -21 -21 -21 -21 -20 -21 -21 -21 -22 -21 -21 -21 -22 -21 -21 -22 -22 -23 -24 -24 -25 -24 -24 -24 -24 -24 -24 -24 -23 -23 -23 -23 -25 -25 -25 -26 -27 -27 -27 -27 -27 -27 -28 -28 -28 -28 -28 -30 -31
-22 -22 -22 -22 -22 -22 -23 -23 -23 -23 -23 -24 -23 -24 -24 -24 -24 -24 -24 -24 -24 -25 -25 -25 -25 -25 -25 -25 -25 -25 -26 -25 -25 -25 -24 -24 -25 -27 -27 -28 -28 -28 -28 -28 -28 -28 -29 -29 -30 -30 -30 -31 -32 -33
-24 -24 -24 -24 -24 -24 -25 -25 -25 -24 -25 -25 -25 -25 -25 -26 -25 -25 -25 -25 -26 -26 -26 -26 -26 -27 -27 -27 -27 -27 -27 -27 -27 -26 -25 -26 -29 -29 -29 -29 -29 -29 -28 -29 -30 -31 -31 -32 -33 -33 -33 -33 -34 -34
-25 -25 -25 -26 -26 -26 -26 -26 -26 -26 -27 -27 -27 -26 -25 -25 -25 -27 -28 -28 -28 -29 -29 -28 -28 -28 -28 -29 -29 -29 -29 -28 -28 -28 -28 -30 -30 -30 -30 -30 -29 -30 -31 -31 -32 -33 -33 -33 -33 -33 -34 -34 -34 -33
-25 -27 -28 -28 -28 -29 -29 -29 -28 -28 -29 -29 -29 -28 -27 -28 -29 -29 -29 -29 -30 -30 -31 -31 -30 -30 -29 -30 -30 -30 -30 -30 -29 -30 -31 -31 -31 -31 -31 -31 -31 -31 -32 -33 -33 -34 -34 -34 -34 -34 -34 -34 -34 -34
-27 -28 -29 -29 -29 -29 -30 -30 -30 -30 -30 -30 -29 -30 -31 -30 -31 -31 -31 -31 -31 -31 -31 -31 -31 -31 -31 -31 -31 -30 -30 -30 -32 -32 -32 -31 -31 -32 -32 -32 -33 -33 -34 -34 -34 -34 -34 -34 -34 -34 -34 -34 -34 -34
-28 -28 -29 -29 -29 -29 -29 -29 -30 -30 -30 -29 -30 -31 -31 -31 -31 -31 -31 -32 -32 -32 -32 -32 -32 -32 -32 -32 -31 -31 -32 -33 -34 -33 -33 -33 -34 -34 -34 -33 -33 -34 -34 -34 -34 -34 -34 -34 -34 -34 -34 -34 -34 -34
-29 -29 -29 -29 -29 -29 -29 -29 -30 -29 -29 -29 -30 -31 -31 -31 -31 -31 -32 -33 -33 -33 -33 -33 -34 -33 -33 -33 -33 -34 -34 -34 -34 -34 -33 -34 -34 -34 -34 -34 -34 -34 -34 -34 -34 -34 -34 -34 -34 -34 -34 -34 -33 -33
-29 -29 -30 -30 -30 -30 -30 -30 -30 -30 -30 -30 -31 -31 -32 -32 -32 -33 -33 -34 -34 -34 -34 -34 -34 -34 -34 -34 -34 -34 -34 -34 -34 -34 -33 -33 -34 -34 -34 -34 -34 -34 -34 -34 -34 -34 -34 -34 -34 -34 -33 -33 -33 -33
-29 -30 -30 -30 -30 -30 -30 -30 -30 -30 -31 -31 -31 -32 -32 -32 -33 -33 -33 -34 -34 -34 -33 -34 -34 -34 -34 -34 -34 -34 -34 -34 -34 -34 -33 -33 -33 -33 -34 -34 -34 -34 -34 -34 -34 -34 -34 -34 -34 -34 -33 -33 -32 -32
-30 -30 -30 -31 -31 -31 -31 -31 -31 -31 -31 -31 -32 -32 -32 -32 -33 -33 -33 -33 -33 -33 -33 -33 -33 -33 -34 -34 -34 -34 -34 -34 -34 -34 -33 -33 -34 -34 -34 -34 -34 -34 -35 -35 -34 -34 -34 -34 -33 -33 -33 -33 -32 -32
-30 -30 -30 -31 -31 -31 -31 -31 -32 -32 -32 -31 -32 -32 -32 -32 -33 -33 -33 -33 -33 -33 -33 -33 -33 -33 -33 -33 -33 -34 -34 -34 -34 -34 -33 -34 -34 -34 -34 -34 -34 -34 -35 -35 -34 -34 -34 -33 -33 -33 -33 -32 -32 -32
-30 -30 -31 -31 -31 -31 -31 -32 -32 -32 -32 -32 -32 -32 -31 -32 -32 -32 -32 -32 -32 -32 -32 -33 -33 -33 -33 -33 -33 -33 -34 -33 -33 -34 -34 -34 -34 -34 -34 -34 -34 -34 -34 -35 -34 -34 -33 -33 -32 -32 -32 -32 -32 -32
-30 -30 -31 -31 -30 -31 -31 -32 -32 -32 -32 -32 -32 -32 -32 -32 -33 -33 -32 -32 -32 -32 -32 -32 -33 -33 -33 -33 -33 -33 -33 -33 -33 -33 -33 -34 -34 -34 -34 -34 -35 -35 -34 -34 -34 -34 -33 -33 -32 -32 -32 -32 -32 -31
-30 -31 -31 -31 -31 -32 -32 -33 -33 -33 -32 -33 -33 -33 -33 -33 -33 -32 -32 -33 -33 -32 -32 -33 -33 -33 -32 -33 -33 -33 -33 -33 -33 -33 -34 -34 -34 -34 -34 -35 -35 -34 -34 -34 -34 -34 -34 -33 -33 -32 -32 -32 -31 -31
-31 -30 -31 -31 -32 -32 -32 -33 -33 -33 -33 -33 -33 -33 -33 -33 -33 -33 -33 -33 -33 -33 -33 -33 -33 -33 -33 -33 -33 -33 -33 -34 -34 -34 -34 -34 -34 -34 -34 -35 -35 -35 -34 -34 -33 -34 -34 -33 -33 -33 -32 -32 -31 -31
-31 -32 -32 -33 -33 -33 -33 -34 -34 -34 -34 -34 -33 -33 -33 -33 -33 -33 -34 -33 -33 -33 -33 -33 -33 -33 -34 -34 -34 -34 -34 -34 -34 -34 -34 -34 -34 -34 -34 -34 -34 -35 -35 -34 -34 -34 -33 -33 -33 -33 -32 -31 -31 -31
-32 -32 -33 -34 -34 -34 -34 -34 -34 -34 -34 -34 -34 -34 -34 -33 -33 -33 -34 -34 -34 -34 -34 -34 -34 -34 -34 -34 -34 -34 -34 -34 -35 -34 -34 -34 -34 -34 -34 -34 -34 -34 -34 -34 -34 -34 -33 -33 -32 -32 -32 -32 -31 -31
-32 -32 -32 -32 -33 -33 -33 -33 -34 -34 -34 -34 -34 -34 -34 -35 -34 -34 -34 -34 -34 -34 -34 -34 -34 -34 -34 -34 -34 -34 -34 -34 -34 -34 -34 -34 -34 -34 -34 -34 -34 -34 -34 -34 -34 -33 -33 -33 -33 -32 -32 -32 -32 -31
-33 -33 -34 -34 -34 -34 -35 -35 -35 -35 -35 -35 -35 -35 -35 -35 -35 -35 -35 -34 -34 -34 -34 -34 -34 -34 -34 -34 -34 -35 -35 -35 -35 -34 -34 -34 -34 -34 -34 -34 -34 -34 -34 -34 -34 -34 -33 -33 -33 -33 -32 -32 -32 -31
-35 -35 -35 -35 -35 -35 -35 -35 -35 -35 -35 -36 -36 -36 -36 -35 -35 -35 -35 -35 -35 -35 -34 -34 -35 -35 -35 -35 -35 -35 -35 -35 -35 -35 -35 -35 -35 -34 -34 -34 -34 -34 -34 -34 -34 -34 -34 -33 -33 -33 -33 -32 -32 -32
-35 -36 -36 -36 -36 -36 -36 -36 -36 -36 -36 -36 -36 -36 -36 -36 -36 -36 -35 -35 -35 -35 -35 -35 -35 -35 -35 -35 -36 -35 -35 -35 -35 -35 -35 -35 -35 -35 -34 -34 -34 -34 -34 -34 -34 -34 -34 -34 -33 -33 -33 -33 -32 -32
-36 -36 -36 -36 -37 -37 -37 -37 -37 -37 -37 -37 -37 -37 -37 -37 -37 -37 -37 -37 -37 -36 -36 -37 -37 -37 -37 -37 -36 -36 -36 -36 -36 -36 -36 -36 -36 -36 -35 -35 -35 -35 -34 -34 -34 -34 -33 -33 -33 -33 -33 -33 -33 -33
Height
5748 5751 5754 5756 5758 5759 5759 5759 5760 5760 5760 5760 5759 5759 5758 5757 5755 5753 5750 5747 5742 5738 5738 5737 5732 5730 5725 5723 5718 5714 5710 5710 5705 5700 5697 5692 5684 5679 5674 5671 5666 5659 5651 5652 5640 5632 5624 5620 5611 5605 5599 5593 5587 5580
5737 5739 5741 5744 5745 5746 5746 5746 5747 5747 5747 5746 5745 5744 5743 5741 5739 5737 5735 5731 5727 5724 5725 5723 5720 5716 5711 5707 5704 5701 5698 5694 5686 5684 5680 5674 5670 5663 5661 5657 5651 5642 5639 5637 5630 5616 5611 5603 5596 5589 5583 5578 5572 5563
5724 5726 5728 5730 5732 5732 5733 5733 5734 5734 5731 5730 5729 5727 5727 5725 5724 5721 5719 5716 5713 5711 5710 5707 5704 5700 5697 5693 5690 5686 5684 5679 5676 5671 5666 5659 5651 5648 5645 5642 5632 5625 5625 5617 5610 5606 5599 5587 5582 5575 5569 5561 5552 5546
5712 5713 5715 5716 5718 5718 5719 5719 5719 5717 5716 5714 5713 5711 5710 5710 5708 5707 5704 5701 5699 5696 5694 5696 5689 5684 5681 5678 5673 5670 5667 5663 5659 5655 5649 5644 5638 5633 5634 5625 5616 5616 5608 5602 5591 5590 5584 5576 5567 5562 5554 5545 5538 5530
5700 5700 5701 5702 5703 5703 5703 5702 5702 5702 5701 5699 5699 5697 5695 5694 5693 5692 5690 5687 5684 5682 5678 5678 5676 5671 5666 5662 5656 5653 5648 5643 5640 5636 5632 5627 5622 5616 5614 5607 5606 5599 5590 5576 5577 5571 5565 5561 5554 5545 5539 5531 5523 5515
5687 5687 5686 5687 5687 5687 5686 5685 5685 5686 5685 5684 5682 5681 5679 5678 5676 5673 5672 5671 5666 5661 5660 5661 5658 5653 5648 5644 5641 5635 5630 5624 5619 5615 5615 5609 5606 5597 5592 5591 5594 5581 5566 5561 5560 5555 5547 5541 5535 5527 5521 5512 5505 5495
5672 5672 5672 5671 5671 5670 5669 5668 5667 5666 5666 5664 5662 5661 5660 5659 5657 5655 5653 5651 5647 5644 5641 5640 5639 5633 5629 5621 5617 5613 5608 5606 5599 5595 5595 5592 5588 5580 5576 5575 5571 5560 5554 5546 5540 5536 5530 5523 5517 5509 5499 5492 5484 5477
5653 5652 5653 5652 5653 5651 5650 5650 5649 5647 5647 5646 5644 5643 5641 5640 5639 5637 5633 5631 5627 5623 5619 5617 5618 5615 5607 5602 5596 5592 5588 5586 5585 5580 5579 5575 5570 5567 5560 5553 5550 5544 5537 5531 5524 5519 5513 5506 5500 5492 5481 5470 5461 5454
5633 5632 5632 5631 5631 5631 5629 5627 5626 5626 5625 5625 5623 5621 5620 5618 5617 5615 5613 5610 5606 5602 5595 5594 5594 5588 5586 5581 5578 5574 5570 5567 5566 5567 5565 5558 5557 5554 5539 5537 5532 5524 5517 5510 5505 5498 5491 5485 5479 5472 5460 5450 5437 5427
5610 5611 5610 5608 5608 5607 5605 5603 5603 5604 5604 5603 5602 5600 5599 5597 5596 5594 5591 5590 5587 5581 5575 5574 5571 5567 5564 5560 5556 5555 5551 5550 5545 5550 5543 5541 5541 5532 5522 5520 5514 5503 5495 5491 5486 5477 5468 5463 5456 5448 5439 5428 5414 5401
5589 5588 5587 5586 5585 5584 5582 5580 5579 5580 5579 5579 5579 5578 5578 5575 5574 5570 5571 5572 5564 5564 5555 5555 5550 5546 5545 5544 5539 5533 5530 5527 5526 5529 5526 5520 5521 5508 5508 5500 5488 5481 5476 5470 5465 5457 5449 5437 5428 5419 5413 5404 5392 5382
5568 5566 5565 5564 5564 5563 5562 5561 5559 5561 5559 5557 5557 5556 5558 5557 5556 5556 5555 5553 5551 5543 5538 5535 5532 5530 5527 5525 5520 5515 5512 5509 5508 5505 5505 5506 5502 5489 5483 5476 5467 5461 5455 5449 5443 5435 5429 5420 5409 5398 5390 5381 5372 5364
5552 5550 5547 5545 5544 5542 5540 5538 5536 5539 5540 5537 5536 5538 5540 5539 5541 5540 5542 5534 5528 5523 5519 5516 5513 5511 5508 5505 5499 5496 5492 5490 5485 5485 5487 5491 5481 5470 5462 5454 5449 5444 5437 5430 5423 5414 5406 5398 5391 5384 5374 5367 5358 5352
5539 5536 5533 5529 5527 5525 5523 5520 5518 5522 5520 5517 5514 5515 5523 5525 5525 5523 5519 5515 5510 5504 5501 5497 5494 5492 5487 5482 5481 5476 5472 5468 5466 5472 5473 5467 5458 5450 5444 5437 5432 5428 5423 5416 5407 5400 5394 5385 5377 5371 5363 5355 5346 5339
5529 5523 5519 5517 5513 5511 5509 5505 5505 5506 5504 5501 5497 5497 5505 5505 5504 5500 5499 5497 5489 5484 5481 5479 5476 5472 5471 5467 5465 5462 5458 5454 5456 5455 5449 5444 5437 5431 5428 5423 5418 5411 5406 5401 5395 5388 5381 5372 5364 5359 5353 5345 5336 5329
5516 5513 5507 5505 5501 5498 5495 5492 5493 5492 5490 5489 5486 5485 5486 5488 5487 5483 5480 5478 5471 5467 5464 5463 5458 5453 5452 5449 5448 5448 5445 5445 5439 5431 5428 5424 5420 5416 5410 5407 5402 5398 5394 5389 5383 5375 5367 5359 5352 5347 5342 5333 5325 5317
5508 5504 5501 5496 5492 5489 5485 5483 5481 5478 5475 5476 5478 5478 5475 5474 5473 5472 5466 5464 5457 5453 5451 5446 5443 5439 5436 5432 5432 5433 5431 5427 5421 5417 5414 5411 5406 5402 5399 5395 5391 5388 5383 5378 5371 5363 5356 5348 5341 5333 5328 5322 5315 5309
5500 5497 5492 5488 5484 5481 5478 5475 5471 5465 5463 5466 5462 5463 5460 5460 5456 5456 5452 5447 5443 5440 5437 5433 5429 5425 5422 5421 5421 5421 5417 5412 5409 5407 5404 5400 5394 5391 5388 5384 5381 5377 5371 5365 5358 5351 5344 5336 5329 5323 5317 5312 5307 5301
5492 5488 5484 5480 5475 5472 5468 5467 5463 5457 5456 5454 5452 5449 5445 5444 5444 5441 5438 5435 5432 5428 5424 5420 5416 5412 5413 5412 5408 5406 5403 5401 5399 5399 5395 5390 5386 5382 5377 5374 5370 5365 5359 5353 5347 5340 5333 5325 5318 5313 5308 5302 5297 5292
5483 5478 5476 5471 5467 5463 5459 5458 5455 5449 5446 5444 5442 5437 5432 5432 5431 5430 5428 5426 5421 5417 5414 5410 5409 5406 5401 5399 5396 5392 5390 5389 5388 5386 5385 5380 5376 5372 5367 5363 5359 5354 5349 5343 5337 5330 5323 5317 5311 5306 5300 5294 5289 5285
5473 5468 5465 5461 5458 5454 5451 5449 5445 5441 5435 5434 5432 5427 5424 5421 5419 5417 5415 5411 5407 5404 5403 5404 5399 5395 5391 5387 5385 5382 5380 5378 5377 5375 5373 5370 5367 5363 5358 5352 5347 5342 5337 5332 5327 5321 5314 5309 5304 5298 5293 5287 5282 5277
5462 5458 5455 5451 5446 5443 5443 5442 5434 5431 5424 5423 5420 5416 5412 5410 5408 5406 5402 5399 5397 5397 5394 5392 5390 5387 5384 5381 5378 5374 5371 5369 5367 5365 5362 5359 5357 5353 5347 5341 5337 5333 5327 5321 5317 5311 5305 5300 5295 5291 5286 5281 5275 5272
5449 5445 5442 5439 5435 5432 5433 5429 5424 5420 5412 5411 5408 5404 5402 5400 5398 5395 5392 5393 5390 5387 5385 5383 5380 5377 5374 5371 5369 5365 5362 5360 5358 5355 5352 5348 5344 5341 5336 5331 5326 5321 5317 5311 5307 5301 5297 5292 5288 5283 5279 5274 5270 5266
5436 5431 5428 5425 5425 5422 5419 5416 5411 5406 5402 5399 5395 5392 5390 5388 5386 5384 5384 5383 5380 5377 5374 5372 5370 5366 5364 5361 5357 5355 5353 5350 5347 5345 5341 5338 5334 5329 5325 5320 5314 5308 5304 5300 5296 5293 5288 5285 5280 5277 5273 5270 5265 5261
5424 5420 5416 5414 5411 5408 5404 5401 5398 5393 5391 5387 5383 5380 5378 5375 5371 5370 5370 5370 5366 5363 5361 5359 5356 5354 5351 5348 5346 5344 5341 5339 5336 5332 5329 5326 5323 5319 5314 5309 5303 5298 5294 5291 5287 5284 5280 5277 5274 5270 5267 5264 5260 5256
5409 5405 5404 5402 5398 5394 5389 5385 5383 5380 5376 5373 5370 5367 5365 5361 5358 5355 5355 5353 5351 5349 5347 5345 5342 5340 5338 5336 5334 5331 5329 5326 5323 5319 5316 5313 5310 5307 5303 5299 5295 5290 5285 5282 5278 5275 5273 5270 5267 5264 5261 5258 5254 5251
5396 5393 5390 5387 5382 5378 5374 5371 5367 5364 5360 5357 5354 5352 5349 5345 5342 5341 5339 5337 5335 5333 5331 5330 5327 5325 5323 5321 5318 5317 5314 5312 5309 5306 5303 5299 5297 5294 5290 5287 5283 5281 5276 5273 5270 5266 5264 5262 5260 5257 5254 5251 5248 5245
5381 5377 5374 5370 5364 5360 5355 5352 5349 5346 5344 5340 5337 5334 5332 5330 5328 5325 5322 5321 5320 5318 5316 5314 5312 5310 5308 5305 5303 5301 5298 5296 5294 5291 5289 5286 5283 5281 5278 5274 5271 5268 5266 5263 5261 5258 5255 5252 5250 5248 5246 5243 5240 5238
5362 5359 5356 5352 5348 5343 5340 5336 5332 5330 5327 5325 5322 5319 5316 5313 5311 5309 5307 5305 5303 5300 5299 5297 5295 5294 5292 5290 5287 5285 5284 5282 5279 5276 5274 5272 5269 5267 5264 5261 5258 5256 5253 5251 5248 5246 5244 5242 5240 5238 5236 5234 5232 5229
5346 5342 5338 5335 5332 5328 5324 5319 5316 5315 5313 5310 5306 5303 5301 5298 5296 5294 5290 5288 5285 5284 5282 5280 5278 5277 5274 5272 5270 5269 5267 5265 5264 5262 5259 5257 5255 5252 5250 5249 5246 5243 5240 5239 5238 5236 5233 5231 5230 5228 5226 5224 5222 5220
5329 5325 5321 5318 5315 5312 5309 5305 5301 5299 5297 5293 5290 5287 5283 5280 5279 5275 5271 5269 5266 5264 5261 5259 5257 5255 5253 5251 5249 5247 5245 5244 5243 5242 5241 5239 5238 5236 5234 5234 5231 5230 5228 5226 5225 5224 5223 5222 5220 5219 5218 5216 5214 5212
5313 5309 5304 5301 5299 5295 5290 5286 5283 5280 5277 5273 5269 5265 5261 5258 5254 5252 5248 5245 5242 5240 5237 5235 5233 5231 5230 5228 5226 5224 5223 5221 5219 5218 5217 5217 5217 5216 5215 5215 5214 5214 5213 5212 5211 5211 5210 5209 5209 5208 5207 5206 5205 5203
5295 5289 5283 5279 5275 5271 5267 5262 5257 5256 5254 5250 5246 5241 5237 5233 5230 5228 5224 5221 5219 5217 5214 5212 5210 5208 5206 5205 5203 5202 5201 5199 5197 5196 5194 5193 5193 5194 5194 5194 5193 5194 5195 5195 5195 5195 5195 5195 5195 5195 5195 5195 5194 5194
Wind_Speed
54 53 51 48 50 51 51 51 50 50 51 50 51 51 53 56 57 59 62 65 66 68 64 59 56 52 52 47 47 51 53 50 51 51 53 51 56 58 61 60 59 61 61 54 61 63 65 60 60 63 64 62 61 62
54 54 54 56 57 56 57 56 56 59 59 62 63 65 62 63 65 67 65 62 61 60 57 55 55 54 54 53 53 54 52 51 55 51 54 61 62 67 66 65 63 63 59 56 58 62 59 59 61 64 63 62 62 65
56 52 54 57 60 57 56 58 62 64 58 59 61 62 66 63 64 61 62 61 60 59 57 58 59 59 59 58 58 57 52 52 56 55 58 63 66 65 64 65 67 67 56 58 59 60 57 61 61 61 62 64 67 68
53 53 51 53 59 65 69 68 67 63 64 56 55 57 62 63 63 63 59 58 60 62 62 60 62 61 62 63 62 61 58 60 62 61 61 64 64 65 63 64 67 57 53 54 62 57 58 58 61 61 63 66 69 69
56 55 57 56 60 62 61 62 61 59 58 58 59 61 61 61 63 63 63 63 64 65 68 69 69 67 66 66 63 60 60 59 59 62 65 67 67 63 64 67 63 49 49 56 59 59 59 59 62 65 67 69 71 73
62 66 66 64 65 66 69 68 65 66 65 66 66 67 68 67 69 69 70 69 69 69 71 73 74 72 72 68 63 64 65 66 66 66 66 67 60 60 66 65 54 50 56 60 60 60 63 65 67 69 70 72 74 76
63 66 69 68 71 71 70 69 70 70 70 70 69 69 67 68 69 69 69 70 70 71 74 77 78 77 74 72 70 66 64 62 65 63 62 58 56 58 60 58 47 56 57 60 61 64 65 67 68 71 74 75 77 77
55 55 61 66 71 68 69 68 64 66 70 73 73 73 71 70 71 71 73 74 76 78 79 80 78 74 69 69 67 64 61 59 59 60 61 58 59 59 64 54 60 59 61 63 64 65 68 69 70 72 75 78 80 81
64 63 64 65 68 70 70 70 71 72 71 72 71 72 73 73 74 77 76 75 77 80 81 80 74 71 71 67 66 65 64 63 63 61 61 64 64 62 63 64 63 64 66 67 68 70 71 72 75 77 80 80 82 83
74 76 76 75 76 77 77 77 78 78 79 81 80 79 79 79 79 79 79 79 79 77 78 73 66 65 66 66 67 65 67 66 67 66 67 66 64 63 64 65 66 70 70 71 72 74 76 78 78 78 80 81 82 83
66 71 77 82 83 83 83 82 82 82 82 81 80 79 79 78 77 76 77 75 73 74 71 65 62 60 60 61 62 62 63 63 66 66 66 69 67 69 67 71 73 70 72 75 76 77 80 81 80 81 82 81 79 78
55 58 62 68 71 78 83 84 85 84 83 81 80 78 75 74 76 75 74 72 68 65 64 62 60 59 60 61 63 63 63 66 68 70 71 72 68 70 69 69 73 74 76 78 78 78 76 76 76 77 77 71 67 62
42 49 52 56 59 63 67 73 78 81 81 81 80 79 75 72 71 72 71 66 62 61 60 59 59 59 60 60 61 61 64 66 69 69 71 66 61 66 67 68 70 73 76 74 71 69 66 63 63 65 65 52 53 57
39 39 42 45 48 51 54 58 61 63 66 68 72 76 77 76 73 66 61 59 59 56 56 58 59 60 60 59 59 62 66 69 69 67 62 59 61 62 64 69 72 69 65 61 52 50 55 59 60 55 45 50 54 55
38 37 37 40 42 45 46 46 47 48 50 53 58 62 62 56 53 54 55 55 56 53 51 52 57 60 61 63 63 63 64 66 64 58 56 60 61 64 65 65 63 58 44 37 42 50 53 52 49 45 46 53 56 54
33 29 31 33 35 38 42 45 45 45 45 45 46 43 37 35 34 36 39 40 45 48 51 55 57 59 59 60 62 62 63 59 51 53 55 59 58 53 53 50 43 33 37 42 47 54 55 53 52 52 53 53 49 47
31 30 30 31 33 34 37 40 43 47 50 49 45 42 42 42 40 40 43 45 48 50 51 51 53 54 55 59 61 59 55 45 39 43 46 43 43 44 45 36 31 35 41 45 51 52 48 52 53 52 51 44 42 44
32 32 32 32 34 34 35 36 37 42 41 35 37 38 40 40 42 42 40 39 42 45 47 47 48 50 53 55 50 42 37 39 39 41 41 40 41 40 42 37 36 41 45 48 53 53 54 55 51 47 42 39 40 40
35 34 34 34 35 36 36 34 36 40 38 36 33 32 32 31 30 29 32 36 38 38 40 43 46 49 46 41 40 38 39 37 34 27 32 37 36 36 35 34 39 43 47 50 53 49 52 48 42 39 38 39 39 39
36 38 36 36 36 37 38 37 37 39 36 33 29 28 31 28 22 23 26 28 33 35 39 42 43 47 46 41 39 42 44 43 36 39 34 39 42 41 39 43 45 43 44 49 46 49 46 40 39 38 37 38 37 36
37 39 37 38 39 39 39 36 38 36 37 35 29 31 33 30 29 30 30 33 38 41 42 44 36 31 32 34 37 38 40 43 44 44 39 39 41 42 46 45 42 43 43 43 44 45 40 37 36 35 35 36 35 33
39 39 38 38 41 43 41 37 39 38 40 38 36 35 35 33 27 27 31 35 38 36 32 30 30 34 34 34 36 37 36 39 39 40 44 41 40 39 43 44 39 40 42 43 44 39 34 34 33 30 31 33 33 31
42 43 43 42 42 42 39 38 39 40 43 42 40 39 38 32 28 28 29 27 28 27 30 33 37 39 38 36 37 39 39 40 35 36 39 37 39 43 44 44 44 46 47 47 42 34 31 32 29 27 29 32 30 28
44 45 47 45 41 41 39 38 41 42 42 43 43 41 38 36 35 33 30 30 33 36 38 39 40 41 41 39 39 39 39 38 40 41 39 41 43 46 46 49 49 49 43 37 34 30 29 30 29 27 29 33 30 26
45 46 47 46 44 44 42 40 42 42 42 40 40 41 40 39 39 39 37 34 36 37 36 35 38 37 35 35 41 44 43 40 42 43 42 41 43 46 47 49 48 42 34 32 31 29 28 29 30 29 32 33 28 26
47 48 47 44 43 41 43 45 44 45 47 47 47 45 44 45 43 42 38 38 40 41 41 42 43 43 43 44 43 42 42 42 42 43 43 45 47 48 48 46 42 38 37 35 33 30 28 28 31 30 32 33 31 25
50 48 47 46 47 50 52 51 49 49 50 50 50 48 46 45 45 43 42 42 39 37 38 41 43 43 44 44 44 43 42 43 44 45 46 47 48 45 42 41 39 38 37 34 32 31 29 28 29 29 26 28 28 27
52 51 50 49 52 54 56 56 55 51 50 52 49 48 49 49 48 45 43 42 44 44 43 42 42 41 41 41 43 45 44 44 45 47 47 46 42 39 40 41 40 39 36 33 30 30 29 27 27 28 28 26 25 26
42 42 42 44 45 47 50 50 49 47 46 46 48 48 47 45 42 40 41 42 43 45 46 45 45 45 45 45 44 44 45 46 46 46 45 43 43 43 43 43 42 40 38 36 35 34 33 30 28 29 30 29 28 26
48 46 48 50 52 52 45 42 40 41 45 47 47 45 44 46 48 48 47 46 46 46 47 48 50 51 52 52 51 50 50 50 50 49 49 50 50 50 48 47 45 43 41 39 36 35 34 33 30 30 31 31 28 26
53 50 47 44 43 43 46 48 50 50 49 48 48 50 54 55 55 57 59 61 62 62 62 61 61 61 60 59 59 59 59 58 57 56 55 56 56 57 57 52 48 43 40 39 37 35 33 32 30 30 30 31 29 27
51 52 55 55 57 60 61 63 64 64 64 64 65 66 66 66 66 66 65 65 65 65 65 64 64 63 63 63 63 63 63 62 62 61 60 58 56 55 53 50 49 46 43 41 40 38 36 35 33 32 31 30 29 27
63 63 62 61 59 58 58 58 59 58 57 57 57 57 56 56 56 56 55 55 54 54 54 54 54 54 55 56 57 57 57 57 57 56 56 56 55 54 53 52 51 50 48 46 44 42 39 37 35 33 32 31 29 27
Wind_Direction
245 249 251 254 258 262 264 265 265 266 268 271 272 272 275 279 280 283 286 288 287 286 287 292 291 291 291 291 291 291 291 296 293 292 295 295 294 295 296 300 303 302 300 307 303 304 303 303 299 299 304 307 305 303
247 249 251 253 257 261 262 262 266 272 270 277 275 275 275 276 280 281 283 282 282 282 285 285 287 289 289 291 292 291 293 294 292 294 293 293 294 295 300 300 302 299 300 304 302 296 297 297 296 300 303 302 301 299
246 250 252 252 254 259 263 263 268 271 272 275 272 272 274 275 278 280 278 279 277 279 281 283 286 288 289 289 291 292 291 290 291 292 292 292 293 296 298 301 298 297 304 297 295 294 294 294 298 299 300 299 297 298
252 254 257 258 261 263 265 266 270 272 274 275 278 276 274 273 277 279 278 279 278 278 278 280 284 288 291 291 291 291 292 291 291 292 292 292 293 294 298 296 295 300 296 294 288 292 294 296 295 295 294 294 296 298
258 259 262 264 270 264 267 269 270 269 271 272 275 277 278 277 275 278 279 279 279 278 278 279 283 286 288 289 290 291 291 289 289 290 291 292 292 292 293 293 297 298 296 286 292 293 294 293 292 293 294 294 294 295
260 262 260 265 266 267 267 268 268 269 270 272 274 272 273 275 275 277 278 278 278 278 279 280 282 287 286 288 289 288 288 289 289 289 289 289 291 289 291 293 298 293 287 291 293 292 290 292 293 293 293 294 296 297
261 262 263 260 265 266 266 268 268 269 272 272 273 274 274 276 276 276 277 278 277 278 279 281 283 284 286 286 285 286 285 284 286 287 288 290 290 290 292 296 292 286 290 290 290 292 292 293 293 294 295 296 296 298
257 260 259 261 261 267 268 266 269 269 271 271 271 272 274 275 275 275 276 277 278 279 279 279 279 283 285 284 285 285 286 286 285 286 289 290 290 292 297 292 292 292 291 291 291 291 291 293 294 295 296 297 296 297
249 249 250 253 254 257 260 262 264 265 265 266 266 267 269 270 271 273 274 276 278 278 279 280 283 284 283 284 284 283 284 285 286 288 289 289 292 295 289 292 294 294 293 291 292 293 293 294 296 298 299 299 300 300
252 252 251 250 251 253 254 256 258 260 262 265 266 267 267 269 271 272 273 275 276 278 280 282 285 285 285 286 286 287 287 288 289 290 290 290 293 290 289 293 293 291 291 294 295 296 297 298 300 300 299 301 301 301
259 257 257 256 256 257 259 260 260 261 263 264 265 267 268 270 271 272 273 275 277 279 283 286 286 287 288 288 289 289 291 291 291 291 292 294 294 291 297 295 293 294 295 295 296 299 302 304 304 303 302 302 303 303
265 264 263 262 263 263 263 264 266 265 267 270 271 272 274 276 276 279 280 282 287 288 288 289 290 290 291 291 291 290 289 290 290 292 291 295 296 296 294 293 295 296 298 300 303 304 303 302 302 302 304 306 304 305
281 275 272 270 270 267 266 266 266 266 270 272 273 274 276 278 280 284 286 287 284 286 285 285 284 284 286 285 285 285 285 285 286 286 291 298 297 295 295 295 296 298 301 304 305 304 303 301 301 304 305 304 303 308
290 289 285 279 275 274 275 274 273 274 275 275 276 275 273 276 278 280 282 281 283 283 282 281 281 282 281 281 281 281 283 285 289 296 300 298 295 293 293 294 298 302 301 301 302 303 303 303 305 308 307 313 314 313
302 296 290 285 282 281 282 283 283 284 284 283 283 283 285 285 284 282 281 279 279 280 281 280 278 280 282 283 284 286 287 289 296 303 295 292 292 293 296 296 298 299 301 304 309 312 312 309 311 308 306 311 311 313
315 314 303 298 293 289 285 284 285 285 285 287 290 301 302 295 293 289 285 281 278 276 278 282 284 285 284 283 285 286 288 298 299 294 294 295 297 297 295 300 300 297 301 310 314 315 314 308 309 310 310 309 312 315
319 315 312 306 302 298 295 293 292 289 288 292 292 288 289 289 291 287 283 282 280 281 283 284 284 286 285 286 290 294 299 299 295 289 292 294 295 295 300 300 296 303 309 309 314 317 316 317 313 309 313 313 314 315
316 316 315 313 310 308 307 305 304 302 308 312 302 298 294 288 282 279 281 280 281 281 281 280 281 280 283 289 297 302 299 291 290 295 305 307 305 306 307 297 298 306 311 312 314 315 312 313 312 313 314 315 314 315
312 311 313 313 311 311 310 314 312 312 315 314 309 302 295 289 286 283 278 281 283 286 288 290 289 293 298 302 304 296 288 287 296 306 309 310 314 312 305 296 305 309 312 311 312 313 315 314 314 316 317 317 315 316
309 305 307 307 308 308 309 315 315 317 317 311 310 301 295 297 287 275 267 275 279 280 280 285 293 295 295 292 286 285 286 284 291 298 305 305 307 309 307 307 305 304 305 307 309 313 314 314 316 318 317 314 314 316
306 304 303 300 301 302 305 310 313 313 308 310 309 301 298 291 288 282 270 271 270 271 279 285 290 292 294 296 297 295 289 291 286 291 300 301 303 303 305 310 306 305 309 308 310 314 311 316 319 318 319 315 314 316
299 298 298 297 296 295 300 307 303 304 302 306 306 300 302 298 292 294 280 269 271 280 274 277 287 294 296 298 301 300 295 292 297 293 297 297 299 303 314 315 310 310 311 309 313 311 312 319 319 320 323 317 315 315
300 297 297 298 297 299 302 300 300 296 293 297 299 301 306 303 288 291 293 288 277 270 270 277 285 287 288 292 294 294 293 295 297 300 303 296 298 308 312 311 307 303 306 310 311 308 312 319 317 322 332 325 317 316
298 296 295 295 301 304 303 297 295 296 296 298 296 294 297 301 294 288 288 279 275 275 275 277 281 285 282 281 284 287 290 290 289 295 300 299 300 305 307 311 311 311 311 308 306 307 311 319 319 319 330 329 319 317
296 295 294 297 301 302 299 293 289 289 293 297 296 293 294 295 291 288 283 280 277 276 275 275 277 280 288 292 282 280 288 293 293 295 297 296 298 303 305 310 310 313 314 311 307 307 307 314 318 313 317 325 321 313
294 295 296 297 295 292 290 293 292 288 288 289 292 293 292 289 287 285 287 285 279 275 275 277 279 282 283 284 286 287 289 291 290 293 293 294 297 300 303 305 303 303 306 307 304 304 302 304 312 310 309 311 319 312
295 297 297 292 291 289 290 292 289 287 288 290 291 291 290 291 289 285 282 282 284 284 282 280 280 282 281 282 283 284 285 286 287 288 289 291 295 299 303 304 303 302 303 301 300 300 300 297 301 304 304 304 306 312
294 292 292 289 288 289 289 288 286 283 285 289 289 289 289 291 292 288 284 282 281 280 282 283 283 284 283 281 282 284 285 285 285 286 289 293 295 301 304 304 304 302 302 301 300 302 303 297 293 300 306 306 300 304
294 290 288 286 289 295 295 290 284 281 281 284 287 289 289 287 286 285 288 288 288 282 278 279 281 280 280 280 281 283 285 286 288 288 287 287 290 297 303 304 300 297 297 298 301 302 304 305 298 295 301 306 306 299
291 290 288 289 292 292 293 287 284 283 286 287 285 284 285 286 286 287 287 287 288 289 289 286 284 282 281 280 279 280 282 284 285 284 283 282 284 288 293 300 299 294 293 292 293 295 297 300 300 299 298 301 307 299
288 288 289 289 290 289 286 286 287 288 289 286 284 284 285 286 285 286 286 286 287 287 287 285 284 283 282 281 281 282 282 282 282 281 279 279 279 281 284 289 291 290 288 288 288 288 288 288 289 291 294 296 299 300
293 293 291 291 291 290 289 288 287 286 286 285 285 284 284 284 284 284 284 283 283 282 282 282 281 280 279 279 279 280 280 280 281 281 280 280 280 280 281 282 281 281 283 284 282 281 281 281 281 282 285 288 290 294
290 290 290 290 289 289 288 287 287 286 286 285 285 285 284 284 284 284 285 284 284 284 284 283 282 282 281 281 280 280 280 280 280 280 280 280 279 278 277 277 276 277 277 278 278 278 278 276 275 274 275 277 278 280